DW7126 Lourinha PT current weather conditions

sailwx.info

Wind from 098 at 4 knots gusting 6

Air temperature 10.0° C
Dewpoint 7.8° C

Last reported at 2018-Feb-21 21:09 UTC.
Time now 2018-Feb-21 21:31 UTC

Location: N 39°14' W 009°18'.
View on Google Maps.

See reports from other nearby stations

  
Tides and Currents Weather Stations Pressure Air Temp Water Temp Dewpoint Dewpoint Depression Visibility Wind Speed Wind Dir Waves Ship Positions
date/time (UTC)wind fromknots sea level pressurealtimeterstation pressurevisibilityair tempwater tempwave heightnotes
2018-Feb-21 21:09 098 4 gusting 6 10.0
2018-Feb-21 21:00 118 1 gusting 3 10.6
2018-Feb-21 20:55 028 10.6
2018-Feb-21 20:51 028 1 gusting 8 10.6
2018-Feb-21 20:45 025 3 gusting 8 10.6
2018-Feb-21 20:40 026 1 gusting 6 10.6
2018-Feb-21 20:35 079 1 gusting 6 10.6
2018-Feb-21 20:33 032 3 gusting 6 10.6
2018-Feb-21 20:25 028 0 gusting 8 10.6
2018-Feb-21 20:20 005 6 gusting 8 10.6
2018-Feb-21 20:15 050 3 gusting 5 10.6
2018-Feb-21 20:14 017 2 gusting 5 10.6
2018-Feb-21 20:05 065 1 gusting 5 10.6
2018-Feb-21 20:00 053 1 gusting 3 10.6
2018-Feb-21 19:55 046 0 gusting 4 10.6
2018-Feb-21 19:50 024 1 gusting 6 11.1
2018-Feb-21 19:45 049 4 gusting 6 11.1
2018-Feb-21 19:40 046 2 gusting 6 11.1
2018-Feb-21 19:20 061 1 gusting 4 11.1
2018-Feb-21 19:05 046 2 gusting 5 11.1
2018-Feb-21 19:00 065 2 gusting 7 11.1
2018-Feb-21 18:50 054 4 gusting 7 11.7
2018-Feb-21 18:45 024 2 gusting 7 11.7
2018-Feb-21 18:35 049 4 gusting 6 11.7
2018-Feb-21 18:25 035 4 gusting 7 11.7
2018-Feb-21 18:10 023 2 gusting 7 12.8
2018-Feb-21 18:05 011 4 gusting 8 12.8
2018-Feb-21 17:55 027 4 gusting 8 13.3
2018-Feb-21 17:50 054 4 gusting 6 13.9
2018-Feb-21 17:46 030 3 gusting 6 13.3
2018-Feb-21 17:40 015 4 gusting 6 13.9
2018-Feb-21 17:35 019 3 gusting 7 13.9
2018-Feb-21 17:30 005 4 gusting 7 13.9
2018-Feb-21 17:27 019 4 gusting 7 13.9
2018-Feb-21 17:20 005 3 gusting 6 14.4
2018-Feb-21 17:15 010 3 gusting 7 14.4
2018-Feb-21 17:10 028 2 gusting 11 13.9
2018-Feb-21 17:09 019 4 gusting 11 13.3
2018-Feb-21 17:00 343 6 gusting 11 13.9
2018-Feb-21 16:55 034 7 gusting 10 14.4
2018-Feb-21 16:51 325 5 gusting 9 13.9
2018-Feb-21 16:45 028 5 gusting 10 14.4
2018-Feb-21 16:40 346 6 gusting 10 14.4
2018-Feb-21 16:35 346 6 gusting 11 14.4
2018-Feb-21 16:32 340 5 gusting 11 13.9
2018-Feb-21 16:25 005 6 gusting 11 14.4
2018-Feb-21 16:20 009 7 gusting 12 14.4
2018-Feb-21 16:15 348 7 gusting 12 15.0
2018-Feb-21 16:13 042 6 gusting 10 15.0
2018-Feb-21 16:05 024 7 gusting 11 15.0
2018-Feb-21 16:00 046 6 gusting 12 14.4
2018-Feb-21 15:56 005 4 gusting 13 14.4
2018-Feb-21 15:50 023 6 gusting 10 15.0
2018-Feb-21 15:45 022 6 gusting 11 15.0
2018-Feb-21 15:40 339 6 gusting 13 14.4
2018-Feb-21 15:37 342 6 gusting 13 14.4
2018-Feb-21 15:30 345 6 gusting 12 15.0
2018-Feb-21 15:25 313 6 gusting 12 15.0
2018-Feb-21 15:20 327 6 gusting 12 15.0
2018-Feb-21 15:18 346 7 gusting 12 14.4
2018-Feb-21 14:41 319 7 gusting 12 14.4
2018-Feb-21 14:35 298 6 gusting 12 15.0
2018-Feb-21 14:25 323 9 gusting 13 15.0
2018-Feb-21 14:15 324 8 gusting 12 15.6
2018-Feb-21 14:05 306 7 gusting 11 15.6
2018-Feb-21 14:00 319 7 gusting 12 15.6
2018-Feb-21 13:46 320 8 gusting 13 15.6
2018-Feb-21 13:45 327 7 gusting 11 16.1
2018-Feb-21 13:35 019 6 gusting 12 16.7
2018-Feb-21 13:27 013 7 gusting 12 16.7
2018-Feb-21 13:15 348 6 gusting 10 17.2
2018-Feb-21 13:10 027 6 gusting 10 17.2
2018-Feb-21 13:00 355 7 gusting 14 16.7
2018-Feb-21 12:55 016 7 gusting 14 16.7
2018-Feb-21 12:50 010 6 gusting 13 16.7
2018-Feb-21 12:35 020 5 gusting 11 16.7
2018-Feb-21 12:25 015 5 gusting 12 16.7
2018-Feb-21 12:20 024 8 gusting 12 16.7
2018-Feb-21 12:12 024 6 gusting 13 16.7
2018-Feb-21 12:00 022 7 gusting 13 16.7
2018-Feb-21 11:54 011 6 gusting 14 16.1
2018-Feb-21 11:45 025 8 gusting 17 16.1
2018-Feb-21 11:35 034 9 gusting 13 16.1
2018-Feb-21 11:20 037 8 gusting 14 15.6
2018-Feb-21 11:10 029 6 gusting 19 15.6
2018-Feb-21 10:50 017 6 gusting 11 15.0
2018-Feb-21 10:45 065 9 gusting 11 15.0
2018-Feb-21 10:40 020 4 gusting 8 14.4
2018-Feb-21 10:35 011 3 gusting 7 14.4
2018-Feb-21 10:30 044 3 gusting 6 13.9
2018-Feb-21 10:25 051 3 gusting 6 13.9
2018-Feb-21 10:22 056 1 gusting 6 13.3
2018-Feb-21 10:15 023 3 gusting 6 13.3
2018-Feb-21 10:10 034 4 gusting 7 12.8
2018-Feb-21 10:05 019 5 gusting 7 12.8
2018-Feb-21 10:03 022 6 gusting 7 12.2
2018-Feb-21 09:55 028 5 gusting 7 12.2
2018-Feb-21 09:50 015 4 gusting 6 12.2
2018-Feb-21 09:45 005 4 gusting 7 11.7
2018-Feb-21 09:44 017 3 gusting 9 11.7
2018-Feb-21 09:35 022 6 gusting 8 11.7
2018-Feb-21 09:30 020 5 gusting 8 11.1
2018-Feb-21 09:25 021 5 gusting 8 10.6
2018-Feb-21 09:20 027 5 gusting 7 10.6
2018-Feb-21 09:15 024 6 gusting 7 10.6
2018-Feb-21 09:10 026 4 gusting 7 10.0
2018-Feb-21 09:06 015 3 gusting 7 9.4
2018-Feb-21 09:00 028 5 gusting 7 9.4
2018-Feb-21 08:55 017 4 gusting 9 8.9
2018-Feb-21 08:50 028 6 gusting 9 8.3
2018-Feb-21 08:48 023 4 gusting 8 7.2
2018-Feb-21 08:40 028 5 gusting 6 6.1
2018-Feb-21 08:35 020 2 gusting 4 5.6
2018-Feb-21 08:30 062 0 gusting 2 5.0
2018-Feb-21 08:29 062 0 gusting 2 5.0
2018-Feb-21 08:20 062 0 gusting 3 4.4
2018-Feb-21 08:15 060 2 gusting 3 5.0
2018-Feb-21 08:10 064 3.9
2018-Feb-21 08:05 063 0 gusting 4 4.4
2018-Feb-21 08:00 062 3 gusting 5 4.4
2018-Feb-21 07:55 044 3 gusting 5 3.9
2018-Feb-21 07:52 045 4 gusting 5 3.9
2018-Feb-21 07:45 162 0 gusting 2 5.0
2018-Feb-21 07:40 148 1 gusting 4 5.0
2018-Feb-21 07:35 036 0 gusting 4 4.4
2018-Feb-21 07:33 036 1 gusting 4 4.4
2018-Feb-21 07:25 189 2 gusting 3 5.6
2018-Feb-21 07:20 136 0 gusting 3 5.6
2018-Feb-21 07:15 102 1 gusting 3 4.4
2018-Feb-21 07:05 153 1 gusting 2 4.4
2018-Feb-21 07:00 074 0 gusting 1 5.0
2018-Feb-21 06:56 069 4.4
2018-Feb-21 06:50 069 0 gusting 5 4.4
2018-Feb-21 06:45 196 2 gusting 6 3.9
2018-Feb-21 06:40 197 5 gusting 6 3.9
2018-Feb-21 06:38 192 4 gusting 6 3.3
2018-Feb-21 06:30 157 1 gusting 2 4.4
2018-Feb-21 06:25 087 0 gusting 6 4.4
2018-Feb-21 06:20 064 4 gusting 6 5.0
2018-Feb-21 06:19 066 4 gusting 6 5.0
2018-Feb-21 06:10 042 0 gusting 2 4.4
2018-Feb-21 06:05 042 2 gusting 2 5.0
2018-Feb-21 06:01 185 5.0
2018-Feb-21 05:55 185 1 gusting 3 6.1
2018-Feb-21 05:50 120 6.1
2018-Feb-21 05:45 120 0 gusting 1 6.7
2018-Feb-21 05:43 120 0 gusting 3 6.1
2018-Feb-21 05:35 130 2 gusting 3 6.7
2018-Feb-21 05:30 163 1 gusting 2 6.1
2018-Feb-21 05:25 074 0 gusting 1 6.1
2018-Feb-21 05:24 074 6.1
2018-Feb-21 05:15 074 0 gusting 2 6.1
2018-Feb-21 05:10 074 1 gusting 3 6.7
2018-Feb-21 05:05 067 0 gusting 3 6.7
2018-Feb-21 05:00 098 0 gusting 1 7.2
2018-Feb-21 04:55 098 0 gusting 1 6.7
2018-Feb-21 04:50 098 0 gusting 4 6.7
2018-Feb-21 04:47 098 6.7
2018-Feb-21 04:40 124 7.2
2018-Feb-21 04:35 158 0 gusting 0 7.2
2018-Feb-21 04:30 158 7.2
2018-Feb-21 04:28 158 7.2
2018-Feb-21 04:20 158 0 gusting 1 7.2
2018-Feb-21 04:15 198 0 gusting 3 7.2
2018-Feb-21 04:10 198 2 gusting 3 6.7
2018-Feb-21 04:00 103 1 gusting 5 6.7
2018-Feb-21 03:55 080 1 gusting 6 6.7
2018-Feb-21 03:52 061 1 gusting 6 6.1
2018-Feb-21 03:45 189 1 gusting 4 6.1
2018-Feb-21 03:40 191 4 gusting 4 5.6
2018-Feb-21 03:35 189 3 gusting 3 5.6
2018-Feb-21 03:33 182 0 gusting 3 5.6
2018-Feb-21 03:25 081 1 gusting 2 6.7
2018-Feb-21 03:20 056 6.7
2018-Feb-21 03:15 346 6.7
2018-Feb-21 03:14 346 6.1
2018-Feb-21 03:05 113 0 gusting 2 7.2
2018-Feb-21 03:00 070 7.8
2018-Feb-21 02:56 070 0 gusting 1 6.7
2018-Feb-21 02:50 070 0 gusting 2 6.7
2018-Feb-21 02:45 070 0 gusting 2 7.2
2018-Feb-21 02:40 155 0 gusting 3 8.9
2018-Feb-21 02:37 154 0 gusting 3 8.3
2018-Feb-21 02:30 183 2 gusting 3 8.3
2018-Feb-21 02:25 183 1 gusting 3 8.3
2018-Feb-21 02:20 180 2 gusting 3 7.8
2018-Feb-21 02:18 169 2 gusting 3 7.8
2018-Feb-21 02:10 144 0 gusting 1 7.8
2018-Feb-21 02:00 144 0 gusting 2 7.8
2018-Feb-21 01:59 144 0 gusting 2 7.2
2018-Feb-21 01:50 144 1 gusting 2 7.2
2018-Feb-21 01:45 117 0 gusting 1 7.2
2018-Feb-21 01:41 117 7.2
2018-Feb-21 01:35 117 1 gusting 2 7.2
2018-Feb-21 01:30 117 1 gusting 2 7.2
2018-Feb-21 01:25 048 0 gusting 0 7.8
2018-Feb-21 01:23 048 7.2
2018-Feb-21 01:15 048 7.8
2018-Feb-21 01:05 037 2 gusting 3 8.3
2018-Feb-21 01:04 037 1 gusting 3 8.3
2018-Feb-21 00:55 179 1 gusting 2 9.4
2018-Feb-21 00:50 179 0 gusting 3 9.4
2018-Feb-21 00:46 179 1 gusting 3 8.9
2018-Feb-21 00:40 179 2 gusting 3 8.9
2018-Feb-21 00:35 136 1 gusting 2 8.9
2018-Feb-21 00:30 056 9.4
2018-Feb-21 00:27 056 9.4
2018-Feb-21 00:20 056 0 gusting 2 10.0
2018-Feb-21 00:15 056 2 gusting 4 10.0
2018-Feb-21 00:10 055 3 gusting 4 10.0
2018-Feb-21 00:08 061 2 gusting 4 10.0
2018-Feb-21 00:01 067 2 gusting 3 10.0
2018-Feb-20 23:55 061 1 gusting 4 10.6
2018-Feb-20 23:50 065 2 gusting 4 10.6
2018-Feb-20 23:48 072 2 gusting 4 10.6
2018-Feb-20 23:40 173 10.6
2018-Feb-20 23:35 173 0 gusting 1 10.6
2018-Feb-20 23:30 173 10.6
2018-Feb-20 23:29 173 10.6
2018-Feb-20 23:20 173 0 gusting 2 10.6
2018-Feb-20 23:15 173 0 gusting 2 10.6
2018-Feb-20 23:11 173 0 gusting 3 10.0
2018-Feb-20 23:05 173 1 gusting 3 10.0
2018-Feb-20 23:00 173 0 gusting 2 10.0
2018-Feb-20 22:55 082 0 gusting 1 10.0
2018-Feb-20 22:52 075 0 gusting 1 9.4
2018-Feb-20 22:45 028 9.4
2018-Feb-20 22:40 028 10.6
2018-Feb-20 22:35 028 0 gusting 1 10.6
2018-Feb-20 22:34 028 0 gusting 2 10.0
2018-Feb-20 22:25 028 0 gusting 4 10.6
2018-Feb-20 22:20 028 1 gusting 4 10.6
2018-Feb-20 22:15 052 1 gusting 2 10.6
2018-Feb-20 22:05 168 10.6
2018-Feb-20 22:00 168 0 gusting 2 10.6
2018-Feb-20 21:56 168 10.6
2018-Feb-20 21:50 168 0 gusting 2 10.6
2018-Feb-20 21:45 168 1 gusting 2 10.6
2018-Feb-20 21:40 190 0 gusting 3 10.6
2018-Feb-20 21:38 190 0 gusting 3 10.6
2018-Feb-20 21:30 096 0 gusting 6 11.1
2018-Feb-20 21:25 355 11.1
2018-Feb-20 21:20 054 11.1
2018-Feb-20 21:19 057 10.6
2018-Feb-20 21:10 192 11.1
2018-Feb-20 21:05 192 0 gusting 1 11.1
2018-Feb-20 21:00 192 0 gusting 3 11.1
2018-Feb-20 20:55 005 1 gusting 3 11.1
2018-Feb-20 20:50 186 1 gusting 2 11.1
2018-Feb-20 20:45 183 0 gusting 2 11.1
2018-Feb-20 20:41 250 0 gusting 1 10.6
2018-Feb-20 20:35 274 0 gusting 1 10.6
2018-Feb-20 20:30 273 0 gusting 3 10.6
2018-Feb-20 20:25 292 1 gusting 3 11.1
2018-Feb-20 20:23 342 1 gusting 3 11.1
2018-Feb-20 20:15 063 2 gusting 4 11.1
2018-Feb-20 20:10 027 1 gusting 3 11.1
2018-Feb-20 20:05 329 1 gusting 3 11.7
2018-Feb-20 20:04 329 0 gusting 3 11.1
2018-Feb-20 19:55 015 0 gusting 5 11.7
2018-Feb-20 19:50 302 3 gusting 6 11.7
2018-Feb-20 19:45 011 2 gusting 6 11.7
2018-Feb-20 19:40 013 3 gusting 5 11.7
2018-Feb-20 19:35 023 3 gusting 5 11.7
2018-Feb-20 19:30 348 2 gusting 4 11.7
2018-Feb-20 19:27 016 0 gusting 3 11.7
2018-Feb-20 19:20 344 1 gusting 4 12.2
2018-Feb-20 19:15 338 2 gusting 4 12.2
2018-Feb-20 19:10 348 1 gusting 8 12.2
2018-Feb-20 19:08 013 1 gusting 8 11.7
2018-Feb-20 19:00 011 5 gusting 8 12.2
2018-Feb-20 18:55 023 4 gusting 7 12.2
2018-Feb-20 18:50 014 4 gusting 7 12.2
2018-Feb-20 18:40 022 5 gusting 7 12.8
2018-Feb-20 18:35 028 4 gusting 7 12.8
2018-Feb-20 18:31 027 5 gusting 10 12.8
2018-Feb-20 18:25 028 5 gusting 9 12.8
2018-Feb-20 18:20 355 5 gusting 7 13.3
2018-Feb-20 18:15 022 3 gusting 6 13.3
2018-Feb-20 18:13 037 4 gusting 6 13.3
2018-Feb-20 18:05 036 4 gusting 6 13.9
2018-Feb-20 18:00 027 3 gusting 8 13.9
2018-Feb-20 17:55 026 3 gusting 8 13.9
2018-Feb-20 17:54 009 4 gusting 8 13.9
2018-Feb-20 17:45 005 5 gusting 10 14.4
2018-Feb-20 17:40 026 4 gusting 6 14.4
2018-Feb-20 17:36 032 2 gusting 6 14.4
2018-Feb-20 17:30 041 3 gusting 7 15.0
2018-Feb-20 17:25 022 5 gusting 9 14.4
2018-Feb-20 17:20 016 6 gusting 11 14.4
2018-Feb-20 17:17 360 4 gusting 11 14.4
2018-Feb-20 17:10 026 6 gusting 8 15.0
2018-Feb-20 17:05 346 3 gusting 8 15.0
2018-Feb-20 17:00 028 4 gusting 8 15.0
2018-Feb-20 16:58 355 4 gusting 6 15.0
2018-Feb-20 16:50 005 3 gusting 7 15.6
2018-Feb-20 16:45 346 4 gusting 10 15.0
2018-Feb-20 16:40 021 5 gusting 9 15.0
2018-Feb-20 16:35 005 6 gusting 11 15.6
2018-Feb-20 16:30 327 6 gusting 14 15.6
2018-Feb-20 16:25 034 8 gusting 12 15.6
2018-Feb-20 16:22 011 4 gusting 12 15.6
2018-Feb-20 16:15 341 6 gusting 12 16.1
2018-Feb-20 16:10 015 6 gusting 11 16.1
2018-Feb-20 16:05 348 2 gusting 10 16.1
2018-Feb-20 16:04 013 2 gusting 10 15.6
2018-Feb-20 15:55 005 5 gusting 10 16.1
2018-Feb-20 15:50 355 5 gusting 10 16.1
2018-Feb-20 15:45 005 6 gusting 12 16.1
2018-Feb-20 15:44 030 5 gusting 12 15.6
2018-Feb-20 15:35 009 7 gusting 13 15.6
2018-Feb-20 15:30 023 7 gusting 13 16.1
2018-Feb-20 15:26 005 6 gusting 13 15.6
2018-Feb-20 15:20 030 6 gusting 17 16.1
2018-Feb-20 15:15 009 9 gusting 17 16.1
2018-Feb-20 15:10 040 11 gusting 15 16.1
2018-Feb-20 15:07 005 6 gusting 13 15.6
2018-Feb-20 15:00 009 7 gusting 13 15.6
2018-Feb-20 14:55 024 9 gusting 13 15.6
2018-Feb-20 14:50 023 9 gusting 13 16.1
2018-Feb-20 14:49 355 8 gusting 13 15.6
2018-Feb-20 14:40 005 7 gusting 12 16.1
2018-Feb-20 14:35 019 7 gusting 12 16.1
2018-Feb-20 14:31 012 5 gusting 11 16.1
2018-Feb-20 14:25 348 6 gusting 10 16.1
2018-Feb-20 14:20 348 6 gusting 11 16.1
2018-Feb-20 14:15 344 6 gusting 11 16.7
2018-Feb-20 14:13 005 6 gusting 10 16.7
2018-Feb-20 14:05 342 6 gusting 11 17.2
2018-Feb-20 14:00 348 4 gusting 12 17.2
2018-Feb-20 13:55 346 5 gusting 8 17.2
2018-Feb-20 13:54 012 4 gusting 8 16.7
2018-Feb-20 13:45 309 6 gusting 9 16.7
2018-Feb-20 13:40 299 6 gusting 9 17.2
2018-Feb-20 13:36 346 5 gusting 8 16.7
2018-Feb-20 13:30 319 3 gusting 10 16.7
2018-Feb-20 13:25 327 6 gusting 10 16.7
2018-Feb-20 13:20 329 3 gusting 6 16.7
2018-Feb-20 13:17 301 4 gusting 7 16.1
2018-Feb-20 13:10 325 6 gusting 7 16.7
2018-Feb-20 13:05 315 4 gusting 6 16.1
2018-Feb-20 13:00 335 4 gusting 7 16.1
2018-Feb-20 12:58 311 3 gusting 7 16.1
2018-Feb-20 12:50 318 5 gusting 9 16.1
2018-Feb-20 12:45 321 6 gusting 9 15.6
2018-Feb-20 12:40 325 6 gusting 10 15.6
2018-Feb-20 12:39 321 6 gusting 10 15.6
2018-Feb-20 12:30 323 5 gusting 7 16.1
2018-Feb-20 12:25 311 5 gusting 7 15.6
2018-Feb-20 12:21 327 4 gusting 9 15.6
2018-Feb-20 12:15 325 7 gusting 9 16.1
2018-Feb-20 12:10 279 4 gusting 7 16.7
2018-Feb-20 12:05 338 2 gusting 5 16.7
2018-Feb-20 12:02 312 1 gusting 6 16.1
2018-Feb-20 11:55 294 4 gusting 8 16.1
2018-Feb-20 11:45 279 2 gusting 4 16.7
2018-Feb-20 11:43 298 2 gusting 4 16.1
2018-Feb-20 11:35 345 0 gusting 2 16.7
2018-Feb-20 11:30 328 1 gusting 4 16.1
2018-Feb-20 11:25 331 2 gusting 5 15.6
2018-Feb-20 11:24 337 1 gusting 6 15.0
2018-Feb-20 11:15 290 2 gusting 5 15.6
2018-Feb-20 11:10 271 2 gusting 4 15.6
2018-Feb-20 11:06 333 15.6
2018-Feb-20 11:00 028 16.1
2018-Feb-20 10:55 005 2 gusting 3 16.1
2018-Feb-20 10:50 355 0 gusting 2 16.1
2018-Feb-20 10:47 098 15.6
2018-Feb-20 10:40 058 0 gusting 2 15.6
2018-Feb-20 10:35 058 0 gusting 2 15.6
2018-Feb-20 10:30 059 1 gusting 2 15.0
2018-Feb-20 10:28 074 0 gusting 2 14.4
2018-Feb-20 10:20 083 1 gusting 3 14.4
2018-Feb-20 10:15 042 0 gusting 1 13.9
2018-Feb-20 10:10 188 13.3
2018-Feb-20 10:09 188 13.3
2018-Feb-20 10:00 183 12.8
2018-Feb-20 09:55 183 0 gusting 1 12.2
2018-Feb-20 09:51 173 11.7
2018-Feb-20 09:45 175 0 gusting 2 11.7
2018-Feb-20 09:40 175 1 gusting 2 11.1
2018-Feb-20 09:35 064 11.1
2018-Feb-20 09:33 064 11.1
2018-Feb-20 09:25 055 2 gusting 3 10.6
2018-Feb-20 09:20 029 1 gusting 2 10.6
2018-Feb-20 09:15 053 0 gusting 1 10.6
2018-Feb-20 09:14 072 0 gusting 1 10.0
2018-Feb-20 09:05 097 10.0
2018-Feb-20 09:00 097 10.0
2018-Feb-20 08:56 095 9.4
2018-Feb-20 08:50 096 10.0
2018-Feb-20 08:45 096 0 gusting 2 10.0
2018-Feb-20 08:40 101 0 gusting 2 10.6
2018-Feb-20 08:37 125 10.0
2018-Feb-20 08:30 218 9.4
2018-Feb-20 08:25 218 8.9
2018-Feb-20 08:20 215 0 gusting 1 8.3
2018-Feb-20 08:19 211 7.8
2018-Feb-20 08:10 198 0 gusting 1 7.8
2018-Feb-20 08:05 196 7.8
2018-Feb-20 08:00 197 0 gusting 2 7.8
2018-Feb-20 07:50 166 1 gusting 2 7.2
2018-Feb-20 07:45 098 0 gusting 2 7.8
2018-Feb-20 07:41 126 1 gusting 2 7.8
2018-Feb-20 07:35 054 7.2
2018-Feb-20 07:30 040 0 gusting 2 7.8
2018-Feb-20 07:25 117 0 gusting 2 8.3
2018-Feb-20 07:23 118 0 gusting 2 8.3
2018-Feb-20 07:15 166 0 gusting 1 8.3
2018-Feb-20 07:10 174 0 gusting 1 7.8
2018-Feb-20 07:05 113 0 gusting 2 7.8
2018-Feb-20 07:04 113 7.8
2018-Feb-20 06:55 112 1 gusting 3 8.3
2018-Feb-20 06:50 146 1 gusting 3 8.3
2018-Feb-20 06:46 084 7.8
2018-Feb-20 06:40 084 0 gusting 1 8.3
2018-Feb-20 06:35 084 8.3
2018-Feb-20 06:30 084 0 gusting 6 8.3
2018-Feb-20 06:27 084 2 gusting 6 8.3
2018-Feb-20 06:20 090 3 gusting 5 8.3
2018-Feb-20 06:15 070 2 gusting 3 8.3
2018-Feb-20 06:10 088 1 gusting 4 8.9
2018-Feb-20 06:09 080 0 gusting 6 8.3
2018-Feb-20 06:00 065 3 gusting 6 8.9
2018-Feb-20 05:55 044 1 gusting 3 8.9
2018-Feb-20 05:51 074 1 gusting 2 8.9
2018-Feb-20 05:45 071 0 gusting 4 8.9
2018-Feb-20 05:40 071 1 gusting 4 8.9
2018-Feb-20 05:35 063 1 gusting 4 8.9
2018-Feb-20 05:32 056 8.3
2018-Feb-20 05:25 082 1 gusting 3 8.9
2018-Feb-20 05:20 055 0 gusting 0 8.3
2018-Feb-20 05:15 055 8.3
2018-Feb-20 05:14 055 7.8
2018-Feb-20 05:05 082 0 gusting 3 8.3
2018-Feb-20 04:56 081 1 gusting 4 8.3
2018-Feb-20 04:50 093 1 gusting 4 8.9
2018-Feb-20 04:45 076 0 gusting 4 8.9
2018-Feb-20 04:40 061 1 gusting 3 8.9
2018-Feb-20 04:37 075 0 gusting 3 8.9
2018-Feb-20 04:30 066 1 gusting 4 8.9
2018-Feb-20 04:25 063 3 gusting 4 8.9
2018-Feb-20 04:20 088 3 gusting 5 8.9
2018-Feb-20 04:18 088 2 gusting 5 8.9
2018-Feb-20 04:10 059 1 gusting 3 8.9
2018-Feb-20 04:05 068 2 gusting 4 8.9
2018-Feb-20 04:00 040 1 gusting 4 8.3
2018-Feb-20 03:55 042 2 gusting 5 8.9
2018-Feb-20 03:45 061 2 gusting 5 8.9
2018-Feb-20 03:42 046 2 gusting 5 8.3
2018-Feb-20 03:35 061 2 gusting 4 8.9
2018-Feb-20 03:30 048 2 gusting 4 8.9
2018-Feb-20 03:25 078 3 gusting 4 8.3
2018-Feb-20 03:23 075 2 gusting 3 7.8
2018-Feb-20 03:15 042 2 gusting 3 8.3
2018-Feb-20 03:10 037 2 gusting 4 8.3
2018-Feb-20 03:05 043 2 gusting 4 8.9
2018-Feb-20 03:04 042 1 gusting 4 8.9
2018-Feb-20 02:55 183 1 gusting 3 8.3
2018-Feb-20 02:50 058 8.9
2018-Feb-20 02:46 058 1 gusting 4 9.4
2018-Feb-20 02:40 081 2 gusting 5 9.4
2018-Feb-20 02:35 055 2 gusting 3 9.4
2018-Feb-20 02:30 053 1 gusting 2 9.4
2018-Feb-20 02:27 053 0 gusting 2 9.4
2018-Feb-20 02:20 053 1 gusting 3 10.0
2018-Feb-20 02:15 053 2 gusting 5 10.0
2018-Feb-20 02:10 055 2 gusting 5 10.0
2018-Feb-20 02:08 058 2 gusting 5 10.0
2018-Feb-20 02:00 065 3 gusting 6 10.0
2018-Feb-20 01:55 057 3 gusting 6 10.0
2018-Feb-20 01:50 049 3 gusting 6 10.0
2018-Feb-20 01:40 065 2 gusting 4 10.0
2018-Feb-20 01:35 071 3 gusting 4 10.0
2018-Feb-20 01:31 067 2 gusting 5 10.0
2018-Feb-20 01:25 065 2 gusting 6 10.0
2018-Feb-20 01:20 084 2 gusting 4 10.6
2018-Feb-20 01:15 051 1 gusting 4 10.6
2018-Feb-20 01:13 086 1 gusting 4 10.0
2018-Feb-20 01:10 057 1 gusting 4 10.6
2018-Feb-20 01:00 019 1 gusting 5 10.6
2018-Feb-20 00:55 019 3 gusting 5 10.6
2018-Feb-20 00:54 023 2 gusting 6 10.0
2018-Feb-20 00:45 017 2 gusting 5 10.6
2018-Feb-20 00:40 051 1 gusting 3 10.6
2018-Feb-20 00:36 059 0 gusting 2 10.0
2018-Feb-20 00:35 059 1 gusting 2 10.6
2018-Feb-20 00:25 056 0 gusting 4 10.6
2018-Feb-20 00:20 056 1 gusting 4 10.6
2018-Feb-20 00:17 062 2 gusting 4 10.0
2018-Feb-20 00:10 031 2 gusting 3 10.6
2018-Feb-20 00:05 033 1 gusting 3 10.6
2018-Feb-20 00:00 157 0 gusting 1 10.6
2018-Feb-19 23:59 157 10.6
2018-Feb-19 23:50 157 0 gusting 2 10.6
2018-Feb-19 23:45 180 0 gusting 2 10.6
2018-Feb-19 23:41 054 10.6
2018-Feb-19 23:35 054 0 gusting 2 10.6
2018-Feb-19 23:30 054 0 gusting 2 10.6
2018-Feb-19 23:25 049 0 gusting 3 10.6
2018-Feb-19 23:22 049 1 gusting 3 10.6
2018-Feb-19 23:15 040 1 gusting 3 10.6
2018-Feb-19 23:10 029 1 gusting 6 10.6
2018-Feb-19 23:05 040 3 gusting 6 11.1
2018-Feb-19 23:03 030 2 gusting 6 10.6
2018-Feb-19 22:55 019 3 gusting 7 11.1
2018-Feb-19 22:50 360 4 gusting 7 11.1
2018-Feb-19 22:45 013 4 gusting 9 11.1
2018-Feb-19 22:35 044 5 gusting 13 11.7
2018-Feb-19 22:30 057 7 gusting 13 11.7
2018-Feb-19 22:26 022 6 gusting 12 11.1
2018-Feb-19 22:20 051 6 gusting 10 11.7
2018-Feb-19 22:15 025 5 gusting 10 11.7
2018-Feb-19 22:10 013 6 gusting 10 11.7
2018-Feb-19 22:07 017 6 gusting 10 11.7
2018-Feb-19 22:00 055 3 gusting 9 11.7
2018-Feb-19 21:55 360 1 gusting 4 11.7
2018-Feb-19 21:50 011 0 gusting 2 11.7
2018-Feb-19 21:49 010 0 gusting 2 11.7
2018-Feb-19 21:40 243 0 gusting 6 11.7
2018-Feb-19 21:35 319 0 gusting 2 11.7
2018-Feb-19 21:31 064 11.7
2018-Feb-19 21:25 063 0 gusting 8 11.7
2018-Feb-19 21:20 311 1 gusting 8 11.7
2018-Feb-19 21:15 026 3 gusting 6 11.7
2018-Feb-19 21:12 033 1 gusting 6 11.7
2018-Feb-19 21:05 032 4 gusting 6 11.7
2018-Feb-19 21:00 249 1 gusting 6 11.7